Preview of NWS' New Version of Forecast
This preview is not operational and should not be used for support decisions.
Latest weather observations around

Joplin, Joplin Regional Airport (KJLN)

Using International System of Units (Switch to English Units)
Date/ Time (CDT) Wind (kph) Vis. (km) Weather Sky Cond. Temp (°C) Rel. Humidity Wind Chill (°C) Heat Index (°C) Pressure Precip. (cm)
Air Dwpt 6 hour Altimeter (hPa) Sea level (hPa) 1 hr 3 hr 6 hr
Max Min
Jul 17 12:53 SSW 21 16.09 Clear CLR 33 25     64%   40 1015.6 1014.1      
Jul 17 11:53 SSW 22 16.09 Clear CLR 32 24     65%   38 1015.9 1014.6      
Jul 17 10:53 SW 26 16.09 Clear CLR 31 24     70%   36 1015.6 1014.4      
Jul 17 09:53 SSW 22 16.09 Clear CLR 29 24     75%   35 1015.2 1014      
Jul 17 08:53 SSW 26 16.09 Clear CLR 28 23     74%   32 1015.2 1013.9      
Jul 17 07:53 SSW 21 16.09 Clear CLR 27 23     79%   30 1014.6 1013.2      
Jul 17 06:53 S 18 16.09 Clear CLR 26 23     85%   28 1014.2 1013      
Jul 17 05:53 S 17 16.09 Clear CLR 26 24     88%   28 1013.9 1012.7      
Jul 17 04:53 S 17 16.09 Clear CLR 26 24     90%   27 1013.9 1012.7      
Jul 17 03:53 S 15 16.09 Clear CLR 26 23     87%   26 1013.6 1012.4      
Jul 17 02:53 SSE 11 16.09 Clear CLR 25 22     84%   26 1013.9 1012.6      
Jul 17 01:53 SE 8 16.09 Clear CLR 25 22     82%   26 1014.2 1012.9      
Jul 17 00:53 SSE 8 16.09 Clear   26 22     82%   26 1014.6 1013.4      
Jul 16 23:53 SSE 8 16.09 Clear CLR 26 22     79%   26 1014.6 1013.2      
Jul 16 22:53 SE 5 16.09 Clear CLR 25 22     84%   26 1014.6 1013.4      
Jul 16 21:53 SSE 8 16.09 Clear CLR 26 22     82%   26 1014.2 1012.9      
Jul 16 20:53 ESE 8 16.09 Clear CLR 27 22     76%   29 1013.2 1012      
Jul 16 17:53 WSW 11 16.09 Clear CLR 30 22     63%   33 1013.6 1012.5      
Jul 16 16:53 W 13 16.09 Mostly Clear FEW037 30 22     63%   33 1013.2 1012      
Jul 16 15:53 W 11 16.09 Partly Cloudy SCT035 29 22     63%   32 1013.6 1012.2      
Jul 16 14:53 WNW 9 16.09 Partly Cloudy SCT040 29 22     63%   32 1014.2 1012.9      
Jul 16 13:53 NNW 9 16.09 Partly Cloudy SCT036 30 21     59%   33 1013.9 1012.8      
Jul 16 12:53 N 9 16.09 Partly Cloudy SCT036 29 22     65%   32 1014.9 1013.6      
Jul 16 11:53 WNW 13 16.09 Mostly Cloudy SCT027 BKN036 27 21     69%   29 1015.2 1014.2      
Jul 16 10:53 NW 11 16.09 Mostly Cloudy BKN021 27 22     74%   29 1015.6 1014.4      
Jul 16 09:53 NW 11 16.09 Mostly Cloudy SCT010 BKN018 25 21     79%   26 1015.2 1014.1      
Jul 16 09:46 WNW 13 16.09 Mostly Cloudy SCT010 BKN018 26 22     79%   26 1015.2        
Jul 16 08:53 5 16.09 Mostly Clear FEW012 24 21     82%   25 1014.9 1013.8      
Jul 16 07:53 5 16.09 Clear CLR 23 21     90%   23 1014.2 1013.2      
Jul 16 06:53 Calm 12.87 Patchy Fog CLR 21 20     96%     1013.9 1012.7      
Jul 16 05:53 Calm 16.09 Patchy Fog CLR 20 20     100%     1012.9 1011.7      
Jul 16 04:53 W 5 16.09 Clear CLR 21 21     97%     1012.5 1011.4      
Jul 16 03:53 Calm 16.09 Mostly Cloudy FEW016 SCT022 BKN040 22 21     96%   22 1012.5 1011.4      
Jul 16 03:32 Calm 16.09 Mostly Cloudy BKN021 BKN038 22 21     96%   22 1012.5        
Jul 16 02:53 Calm 16.09 Cloudy OVC039 22 21     93%   23 1012.9 1011.7      
Jul 16 01:53 Calm 16.09 Cloudy OVC040 22 21     93%   23 1013.2 1012      
Jul 16 00:53 Calm 16.09 Mostly Clear FEW044 22 21     93%   23 1013.2 1012.1      
Jul 15 23:53 NNW 5 16.09 Clear   22 21     93%   23 1013.2 1012.3      
Jul 15 22:53 Calm 16.09 Cloudy OVC050 23 21     90%   23 1012.5 1011.6      
Jul 15 21:53 NE 5 16.09 Cloudy OVC050 23 21     85%   24 1012.2 1011      
Jul 15 20:53 NNE 8 16.09 Cloudy BKN040 OVC049 24 21     82%   24 1011.5 1010.6      
Jul 15 19:53 N 8 16.09 Mostly Clear FEW046 24 21     79%   25 1011.5 1010.6      
Jul 15 18:53 N 11 16.09 Clear CLR 26 21     74%   28 1011.5 1010.2     0
Jul 15 17:53 N 15 16.09 Partly Cloudy SCT070 27 22     74%   29 1011.5 1010.3      
Jul 15 16:53 N 11 16.09 Partly Cloudy SCT070 25 22     82%   26 1011.9 1010.9 0    
Jul 15 15:53 N 18 16.09 Mostly Cloudy FEW016 BKN050 24 21     82%   25 1012.5 1011.4 0 0  
Jul 15 15:21 NNE 11 11.27 Mostly Cloudy SCT029 BKN041 BKN049 24 22     88%   25 1012.5   0    
Jul 15 14:53 NE 5 9.66 Light Rain and Fog/Mist BKN017 BKN029 OVC038 23 21     90%   23 1012.9 1011.9 0    
Jul 15 14:50 ENE 11 6.44 Rain and Fog/Mist SCT015 BKN020 OVC038 23 21     89%   24 1012.9   0    
Jul 15 14:35 NNE 15 16.09 Cloudy SCT025 OVC038 26 21     76%   26 1012.9   0    
Jul 15 13:53 8 16.09 Cloudy BKN017 BKN027 OVC045 26 21     74%   28 1013.2 1012      
Jul 15 12:53 8 16.09 Mostly Cloudy BKN010 BKN023 24 21     82%   25 1013.6 1012.6     0
Jul 15 11:53 ENE 11 12.87 Cloudy SCT010 BKN018 OVC024 23 21     90%   23 1013.9 1013.1 0    
Jul 15 11:00 NNE 8 16.09 Cloudy OVC014 23 19     81%   23 1014.2        
Jul 15 10:53 NNE 11 16.09 Cloudy OVC014 23 20     84%   23 1014.2 1013.3      
Jul 15 09:53 NE 8 16.09 Cloudy OVC013 23 20     84%   23 1014.6 1013.6      
Jul 15 08:53 ENE 8 16.09 Cloudy OVC013 22 19     87%   22 1014.9 1013.8      
Jul 15 08:05 NNE 13 16.09 Mostly Cloudy BKN019 BKN050 21 19     87%     1014.9        
Jul 15 07:53 NE 9 16.09 Mostly Cloudy SCT017 BKN050 21 19     87%     1014.6 1013.6      
Jul 15 06:53 NE 8 16.09 Mostly Cloudy BKN019 21 18     84%     1014.6 1013.3      
Jul 15 05:53 NE 8 16.09 Cloudy OVC019 21 18     84%     1014.6 1013.6      
Jul 15 04:53 NE 9 16.09 Cloudy OVC021 22 18     81%   22 1014.9 1013.6      
Jul 15 03:53 E 9 16.09 Cloudy OVC021 22 18     81%   22 1014.9 1013.7      
Jul 15 02:53 E 13 16.09 Cloudy OVC023 22 18     79%   23 1015.2 1014      
Jul 15 01:53 E 17 16.09 Cloudy OVC023 22 19     82%   23 1015.9 1014.9      
Jul 15 00:53 ENE 11 16.09 Cloudy OVC022 22 19     84%   22 1016.3 1015.2      
Jul 15 00:33 E 11 16.09 Mostly Cloudy BKN024 22 19     84%   22 1016.6        
Jul 14 23:53 E 11 16.09 Clear CLR 22 19     84%   22 1016.6 1015.5      
Jul 14 22:53 ESE 15 16.09 Clear CLR 23 19     79%   23 1016.6 1015.4      
Jul 14 21:53 E 13 16.09 Clear CLR 23 19     76%   24 1016.3 1015      
Jul 14 20:53 ESE 13 16.09 Clear CLR 24 19     71%   25 1016.3 1014.9      
Jul 14 19:53 ESE 22 16.09 Clear CLR 27 19     64%   28 1015.9 1014.6      
Jul 14 18:53 ESE 22 16.09 Mostly Clear FEW035 28 21     65%   30 1015.9 1014.9 0   0
Jul 14 17:53 ESE 17 16.09 Light Rain SCT035 BKN055 BKN070 28 21     67%   30 1016.3 1015.2 0    
Jul 14 16:53 SE 13 16.09 Partly Cloudy SCT060 29 21     61%   32 1016.9 1015.6      
Jul 14 15:53 E 18 16.09 Partly Cloudy SCT060 29 21     61%   32 1017.3 1015.9      
Jul 14 14:53 E 15 16.09 Mostly Cloudy FEW034 BKN050 30 22     61%   33 1017.6 1016.4      
Jul 14 13:53 SE 22 16.09 Cloudy OVC045 28 21     67%   30 1018 1016.8      
Jul 14 12:53 SE 15 16.09 Mostly Cloudy BKN038 BKN045 29 21     63%   31 1018.3 1017      
Jul 14 11:53 SE 21 16.09 Partly Cloudy SCT025 28 21     65%   30 1018.3 1017.1      
Jul 14 10:53 SE 18 16.09 Partly Cloudy SCT025 27 21     71%   28 1018.3 1017.1      
Jul 14 09:53 SE 13 16.09 Mostly Cloudy BKN060 27 22     74%   29 1018.6 1017.5      
Jul 14 08:53 ESE 11 16.09 Mostly Clear FEW055 26 22     77%   28 1018.6 1017.4      
Jul 14 07:53 SE 15 16.09 Clear CLR 24 22     85%   25 1018.3 1017.1      
Jul 14 06:53 Calm 14.48 Clear CLR 23 22     94%   24 1018 1016.5      
Jul 14 05:53 Calm 11.27 Clear CLR 23 22     94%   24 1017.3 1015.9      
Jul 14 04:53 Calm 14.48 Clear CLR 23 22     94%   24 1016.9 1015.6      
Jul 14 03:53 E 9 16.09 Clear CLR 24 22     90%   25 1016.6 1015.4      
Jul 14 02:53 E 8 14.48 Clear CLR 24 22     90%   25 1016.9 1015.6      
Jul 14 01:53 ENE 9 16.09 Clear CLR 24 22     90%   25 1016.9 1015.6      
Jul 14 00:53 ENE 8 16.09 Clear CLR 24 22     88%   25 1017.3 1015.9      
Jul 13 23:53 E 9 16.09 Clear CLR 26 22     82%   26 1017.3 1015.9      
Jul 13 22:53 E 9 16.09 Clear CLR 26 22     79%   28 1016.6 1015.3      
Jul 13 21:53 E 8 16.09 Clear CLR 27 22     76%   29 1015.9 1014.6      
Jul 13 20:53 E 5 16.09 Clear CLR 28 22     72%   30 1015.6 1014.2      
Jul 13 19:53 ENE 8 16.09 Clear CLR 29 22     63%   32 1015.6 1014.2      
Jul 13 18:53 E 9 16.09 Clear CLR 31 21     57%   33 1015.2 1013.9      
Jul 13 17:53 E 15 16.09 Clear CLR 31 21     55%   34 1015.2 1014      
Jul 13 16:53 E 15 16.09 Clear CLR 31 21     54%   34 1015.6 1014.4      
Jul 13 15:53 ENE 8 16.09 Mostly Clear FEW046 32 21     52%   34 1016.3 1015      
Jul 13 14:53 E 15 16.09 Partly Cloudy SCT046 SCT055 31 21     55%   34 1016.6 1015.5      
Jul 13 13:53 E 13 16.09 Mostly Clear FEW042 31 21     55%   34 1017.3 1015.8      
Jul 13 12:53 8 16.09 Mostly Clear FEW040 30 21     59%   33 1017.3 1016.1      
Jul 13 11:53 8 16.09 Partly Cloudy FEW038 SCT055 29 21     61%   31 1018 1016.7      
Jul 13 10:53 E 15 16.09 Clear CLR 29 21     61%   31 1018 1016.7      
Jul 13 09:53 E 13 16.09 Clear CLR 28 21     65%   30 1017.6 1016.5      
Jul 13 08:53 ESE 13 16.09 Clear CLR 26 21     72%   27 1017.3 1015.9      
Jul 13 07:53 8 16.09 Clear CLR 24 21     82%   24 1016.9 1015.8      
Jul 13 06:53 Calm 11.27 Clear CLR 21 20     93%     1016.6 1015.3      
Jul 13 05:53 Calm 16.09 Mostly Clear FEW043 21 19     90%     1016.3 1015      
Jul 13 04:53 ESE 11 16.09 Clear CLR 21 20     93%     1015.9 1014.5      
Jul 13 03:53 ENE 5 11.27 Clear CLR 20 19     96%     1015.6 1014.5      
Jul 13 02:53 E 5 16.09 Mostly Clear FEW047 22 21     93%   22 1015.2 1014.2      
Jul 13 01:53 ENE 5 16.09 Partly Cloudy SCT055 22 21     91%   23 1015.2 1014.1      
Jul 13 00:53 NE 9 16.09 Clear CLR 22 21     91%   23 1015.2 1014      
Jul 12 23:53 NE 9 16.09 Clear CLR 23 21     87%   23 1014.9 1013.7      
Jul 12 22:53 ENE 5 16.09 Clear CLR 23 21     87%   23 1014.6 1013.4      
Jul 12 21:53 ENE 5 16.09 Clear CLR 24 21     79%   25 1014.2 1013.2      
Jul 12 20:53 E 5 16.09 Clear CLR 27 20     67%   28 1013.9 1012.8      
Jul 12 19:53 Calm 16.09 Clear CLR 28 21     63%   30 1014.2 1013      
Jul 12 18:53 NE 8 16.09 Clear CLR 29 19     55%   31 1014.2 1013      
Jul 12 17:53 8 16.09 Clear CLR 30 19     53%   32 1014.2 1013.2      
Jul 12 16:53 E 15 16.09 Mostly Clear FEW050 30 19     53%   32 1014.6 1013.5      
Jul 12 15:53 ESE 9 16.09 Mostly Clear FEW050 31 20     53%   33 1015.2 1014      
Jul 12 14:53 E 8 16.09 Mostly Cloudy SCT044 BKN055 29 19     55%   31 1015.6 1014.4      
Jul 12 13:53 5 16.09 Partly Cloudy FEW047 SCT055 29 19     55%   31 1015.6 1014.6      
Jul 12 12:53 ENE 11 16.09 Partly Cloudy FEW038 SCT050 29 20     59%   31 1015.9 1014.8      
Jul 12 11:53 8 16.09 Partly Cloudy FEW032 SCT050 27 20     65%   29 1016.3 1015      
Jul 12 10:53 5 16.09 Partly Cloudy SCT027 SCT050 27 21     67%   29 1016.6 1015.5      
Jul 12 09:53 8 16.09 Clear CLR 26 21     72%   27 1016.3 1015.2      
Jul 12 08:53 5 16.09 Clear CLR 24 20     76%   25 1016.6 1015.4      
Jul 12 07:53 Calm 16.09 Clear CLR 22 19     84%   23 1016.3 1015.2      
Jul 12 06:53 Calm 9.66 Fog/Mist CLR 19 18     96%     1015.9 1014.8      
Jul 12 05:53 Calm 9.66 Fog/Mist CLR 18 18     100%     1015.6 1014.5      
Jul 12 05:45 Calm 4.83 Fog/Mist CLR 19 18     96%     1015.6        
Jul 12 05:40 Calm 2.01 Fog/Mist FEW003 18 18     97%     1015.6        
Jul 12 05:24 Calm 1.21 Fog/Mist VV003 18 18     97%     1015.6        
Jul 12 05:20 Calm 2.41 Fog/Mist FEW003 18 18     97%     1015.6        
Jul 12 04:53 Calm 9.66 Fog/Mist FEW003 19 18     96%     1015.6 1014.4      
Jul 12 03:53 Calm 14.48 Clear CLR 19 18     96%     1015.6 1014.5      
Jul 12 02:53 Calm 16.09 Clear CLR 19 19     97%     1015.9 1014.7      
Jul 12 01:53 Calm 16.09 Clear CLR 20 19     93%     1016.3 1015.1      
Jul 11 23:53 ENE 5 16.09 Clear CLR 21 19     90%     1015.6 1014.5      
Jul 11 22:53 Calm 16.09 Clear CLR 22 19     84%   22 1015.2 1014.2      
Jul 11 21:53 Calm 16.09 Partly Cloudy SCT050 23 19     79%   23 1015.2 1014.2      
Jul 11 20:53 N 5 16.09 Clear CLR 24 19     76%   24 1014.9 1013.9      
Jul 11 19:53 N 9 16.09 Mostly Clear FEW050 26 19     65%   26 1015.2 1014.2      
Jul 11 18:53 N 15 16.09 Clear CLR 28 18     55%   29 1015.6 1014.5      
Jul 11 17:53 N 17 16.09 Clear CLR 29 18     51%   30 1015.9 1014.8      
Jul 11 16:53 N 18 16.09 Mostly Clear FEW050 29 18     53%   30 1016.3 1015.3      
Jul 11 15:53 NNW 13 16.09 Clear CLR 29 18     53%   30 1016.6 1015.6      
Jul 11 14:53 NNW 17 16.09 Clear CLR 29 19     55%   30 1017.3 1016.1      
Jul 11 13:53 NNW 11 16.09 Clear CLR 28 19     57%   30 1017.6 1016.6      
Jul 11 12:53 N 17 16.09 Clear CLR 28 19     58%   29 1018 1016.9      
Jul 11 11:53 N 17 16.09 Clear CLR 27 18     58%   28 1018.6 1017.3      
Jul 11 10:53 N 15 16.09 Clear CLR 27 19     62%   28 1019.3 1018.1      
Jul 11 09:53 N 13 16.09 Clear CLR 25 19     69%   25 1019.7 1018.5      
Jul 11 08:53 8 16.09 Clear CLR 24 19     74%   24 1019.7 1018.6      
Jul 11 07:53 8 16.09 Clear CLR 22 19     84%   22 1019.3 1018.3      
Jul 11 06:53 Calm 16.09 Clear CLR 19 18     93%     1019 1018.1      
Jul 11 05:53 Calm 16.09 Clear CLR 20 18     90%     1018.6 1017.7      
Jul 11 04:53 N 11 16.09 Clear CLR 21 18     87%     1018 1017      
Jul 11 03:53 N 8 16.09 Clear CLR 21 19     93%     1018 1016.8      
Jul 11 02:53 NNW 5 16.09 Clear CLR 22 21     96%   22 1018 1016.9      
Notice The following observation data may not be complete
Jul 11 02:27   9.66 Fog/Mist CLR          %              
Jul 11 02:15 Calm 3.22 Fog/Mist CLR 22 21     96%   22 1018.3        
Jul 11 02:00 NW 5 2.41 Fog/Mist CLR 22 21     96%   22 1018.3        
Jul 11 01:53 NNW 8 8.05 Fog/Mist CLR 22 21     96%   22 1018.3 1017.5      
Jul 11 00:53 Calm 14.48 Mostly Clear FEW080 23 22     96%   24 1018.3 1017.4      
Jul 10 23:53 Calm 12.87 Clear CLR 23 22     94%   24 1018.6 1017.5      
Jul 10 22:53 Calm 16.09 Clear CLR 23 22     94%   24 1018.6 1017.3      
Jul 10 21:53 Calm 16.09 Clear CLR 23 22     96%   24 1018.3 1017.1      
Jul 10 20:53 Calm 16.09 Clear CLR 24 23     91%   25 1018 1016.8      
Jul 10 19:53 5 16.09 Clear CLR 26 23     82%   28 1018 1016.7      
Jul 10 17:53 Calm 16.09 Clear CLR 27 21     69%   28 1016.9 1015.9      
Jul 10 16:53 S 8 16.09 Clear CLR 26 21     76%   26 1017.3 1016.1      
Jul 10 14:53 W 15 16.09 Clear CLR 23 21     85%   24 1016.9 1015.9      
Jul 10 13:53 ESE 18 16.09 Partly Cloudy FEW100 SCT120 23 21     87%   23 1015.6        
Jul 10 12:53 ENE 11 16.09 Thunderstorms SCT095 BKN110 23 21     87%   24 1018.3 1017.3 1   1
Jul 10 12:34 ENE 17 16.09 Clear   22 21     91%   23 1019.3   1    
Jul 10 12:24 ENE 24 4.83 Clear   22 21     93%   22 1020.3   1    
Jul 10 12:19   2.01 Clear   22 21     93%   22 1020   1    
Jul 10 12:04   0.8 Clear   21 19     90%         1    
Jul 10 11:59   1.21 Clear   22 20     87%   23 1020.3   0    
Jul 10 11:56   3.22 Clear   23 21     87%   23 1020.3   0    
Jul 10 11:53   8.05 Clear   23 21     85%   24   1019.5 0    
Jul 10 11:39 N 17 9.66 Rain SCT029 BKN060 BKN070 28 25     82%   33 1018.3   0    
Jul 10 11:30 N 21 16.09 Mostly Cloudy BKN026 BKN044 BKN080 31 25     72%   37 1018.3        
Jul 10 08:53 W 8 16.09 Mostly Cloudy BKN035 28 24     77%   32 1018.6 1017.3      
Jul 10 07:53 S 8 16.09 Clear CLR 27 24     82%   30 1017.3 1016      
Jul 10 06:53 S 8 16.09 Clear CLR 25 23     90%   26 1016.6 1015.2      
Jul 10 04:53 S 9 16.09 Clear CLR 25 23     90%   26 1015.9 1014.4      
Jul 10 03:53 SSE 9 16.09 Mostly Clear FEW049 26 23     87%   26 1015.9 1014.4      
Jul 10 02:53 S 9 16.09 Clear CLR 26 23     87%   26 1015.9 1014.6      
Jul 10 01:53 S 9 16.09 Clear CLR 26 23     87%   26 1015.9 1014.5      
Jul 10 00:53 S 8 16.09 Clear CLR 26 23     87%   26 1015.6 1014.4      
Jul 09 23:53 S 13 16.09 Clear CLR 27 24     85%   31 1015.6 1014.1      
Jul 09 22:53 S 8 16.09 Clear CLR 27 24     85%   31 1015.2 1013.9      
Jul 09 21:53 S 5 16.09 Clear CLR 28 24     79%   32 1014.6 1013.4      
Jul 09 20:53 S 5 16.09 Clear CLR 29 24     74%   33 1014.2 1012.8      
Jul 09 19:53 S 8 16.09 Clear CLR 30 24     72%   36 1013.6 1012.3      
Jul 09 18:53 SSE 8 16.09 Mostly Clear FEW041 32 24     65%   38 1013.2 1012      
Jul 09 17:53 S 13 16.09 Partly Cloudy SCT045 SCT060 32 24     64%   39 1013.6 1012.2      
Jul 09 16:53 SSW 15 16.09 Partly Cloudy SCT040 33 24     61%   40 1013.6 1012.4      
Jul 09 15:53 S 17 16.09 Partly Cloudy SCT039 32 25     66%   39 1013.9 1012.6      
Jul 09 13:53 SSW 21 16.09 Mostly Clear FEW040 32 24     62%   38 1013.9 1012.7      
Jul 09 12:53 SSW 21 16.09 Partly Cloudy SCT035 31 23     63%   36 1014.6 1013.2      
Jul 09 11:53 SSW 17 16.09 Partly Cloudy SCT032 30 23     65%   34 1014.9 1013.5      
Jul 09 09:53 SW 17 16.09 Clear CLR 28 23     77%   31 1014.9 1013.7      
Jul 09 08:53 S 18 16.09 Clear CLR 27 23     82%   29 1014.9 1013.5      
Jul 09 07:53 S 8 16.09 Clear CLR 24 22     88%   25 1014.6 1013.4      
Jul 09 06:53 SSE 8 16.09 Clear CLR 24 22     88%   25 1014.2 1013      
Jul 09 05:53 S 8 16.09 Partly Cloudy SCT047 23 22     91%   24 1014.9 1013.5      
Jul 09 04:53 SSE 8 16.09 Mostly Clear FEW049 FEW065 23 22     91%   24 1014.6 1013.2      
Jul 09 01:53 SSE 8 16.09 Clear CLR 23 23     97%   24 1012.5 1011.2      
Jul 08 23:53 ESE 9 16.09 Clear CLR 24 22     90%   25 1013.2 1012      
Jul 08 22:53 SE 5 16.09 Partly Cloudy FEW034 FEW070 SCT085 24 22     88%   25 1014.6 1013.2      
Jul 08 22:40 SE 11 16.09 Mostly Cloudy SCT024 SCT035 BKN065 25 22     84%   26 1014.6        
Jul 08 22:26 SE 11 16.09 Cloudy BKN024 BKN033 OVC055 25 22     84%   26 1014.6        
Jul 08 21:53 E 5 16.09 Mostly Clear FEW050 25 23     88%   26 1014.2 1013      
Jul 08 20:53 Calm 16.09 Clear CLR 26 22     82%   26 1013.2 1011.8      
Jul 08 19:55 SSW 21 16.09 Mostly Cloudy FEW026 SCT037 BKN085 28 23     74%   31 1012.5        
Jul 08 19:53   16.09 Mostly Cloudy FEW026 SCT037 BKN080 28 23     77%   31 1012.5 1011.2      
Jul 08 18:53 8 16.09 Mostly Cloudy FEW028 SCT038 BKN055 29 24     75%   35 1013.2 1011.8      
Jul 08 17:53 5 16.09 Clear CLR 30 24     72%   36 1013.2 1011.8      
Jul 08 16:53 8 16.09 Clear CLR 29 25     77%   35 1013.2 1012.1      
Jul 08 14:53 E 13 16.09 Mostly Clear FEW095 30 24     70%   35 1014.2 1012.8      
Jul 08 13:53 SE 15 16.09 Mostly Cloudy SCT039 BKN048 BKN085 29 23     68%   33 1014.2 1012.9      
Jul 08 12:53 SSW 17 16.09 Mostly Cloudy BKN035 31 24     70%   36 1015.2 1013.9      
Jul 08 11:53 SSE 9 16.09 Partly Cloudy FEW028 SCT039 31 24     68%   36 1015.6 1014.2      
Jul 08 10:53 S 9 16.09 Partly Cloudy SCT025 29 24     72%   34 1015.9 1014.5      
Jul 08 09:53 ESE 13 16.09 Partly Cloudy SCT021 28 24     77%   32 1015.9 1014.5      
Jul 08 08:53 ESE 9 16.09 Clear CLR 27 23     79%   30 1015.6 1014.3      
Jul 08 07:53 E 11 16.09 Clear CLR 26 23     85%   26 1015.6 1014.1      
Jul 08 06:53 ENE 8 14.48 Clear CLR 23 22     94%   24 1015.2 1014      
Jul 08 05:53 Calm 16.09 Mostly Cloudy BKN060 23 22     96%   24 1015.2 1014      
Jul 08 04:53 Calm 14.48 Partly Cloudy SCT049 23 22     96%   24 1014.9 1013.6      
Jul 08 03:53 ESE 8 16.09 Cloudy OVC055 23 23     97%   24 1014.9 1013.7      
Jul 08 02:53 SSE 5 14.48 Partly Cloudy SCT065 23 23     97%   24 1015.2 1014      
Jul 08 01:53 ENE 5 12.87 Clear CLR 24 23     94%   25 1015.2 1014      
Jul 08 00:53 Calm 16.09 Mostly Clear FEW060 24 23     96%   25 1015.6 1014.3      
Jul 07 23:53 SSE 9 16.09 Clear CLR 25 23     90%   26 1015.6 1014.3      
Jul 07 22:53 ESE 5 16.09 Mostly Clear FEW050 25 23     88%   26 1015.6 1014.3      
Jul 07 21:53 NE 5 16.09 Clear CLR 25 23     90%   26 1014.9 1013.9      
Jul 07 20:53 NE 5 16.09 Clear CLR 27 23     82%   29 1014.9 1013.8      
Jul 07 19:53 Calm 16.09 Clear   28 23     72%   32 1014.6 1013.5      
Jul 07 18:53 8 16.09 Clear   30 23     65%   34 1014.6 1013.3      
Jul 07 17:53 5 16.09 Partly Cloudy SCT039 31 22     59%   35 1014.9 1013.5      
Jul 07 16:53 N 8 16.09 Partly Cloudy SCT031 32 23     59%   36 1015.2 1014      
Jul 07 15:53 Calm 16.09 Mostly Cloudy SCT038 BKN055 32 22     55%   35 1015.6 1014.1      
Jul 07 14:53 Calm 16.09 Mostly Cloudy BKN035 BKN044 30 22     63%   33 1015.9 1014.8      
Jul 07 13:53 5 16.09 Partly Cloudy SCT027 31 23     63%   35 1016.6 1015.5      
Jul 07 12:53 9 16.09 Partly Cloudy SCT027 29 23     68%   33 1017.3 1016.1      
Jul 07 11:53 5 16.09 Mostly Cloudy SCT021 BKN031 28 23     74%   32 1018 1016.7      
Jul 07 11:31 Calm 16.09 Clear   27 23     77%   30 1018        
Jul 07 10:53 Calm 16.09 Clear   27 22     74%   30 1018.3 1017.2      
Jul 07 08:53 WNW 8 14.48 Mostly Cloudy BKN006 23 22     94%   24 1018.6 1017.7      
Jul 07 08:37 W 5 12.87 Mostly Cloudy BKN005 23 22     94%   24 1018.6        
Jul 07 08:03 Calm 9.66 Fog/Mist FEW003 SCT006 23 22     96%   24 1018.6        
Jul 07 07:53 W 5 8.05 Fog/Mist BKN007 22 22     97%   23 1018.6 1017.4      
Jul 07 07:39 W 5 6.44 Fog/Mist BKN003 OVC007 22 22     97%   23 1018.3        
Jul 07 06:53 NW 8 6.44 Fog/Mist SCT004 22 21     96%   22 1018.3 1017.2     0
Jul 07 06:44 NW 8 6.44 Fog/Mist FEW004 22 21     96%   22 1018.3        
Jul 07 06:30 NW 8 4.83 Fog/Mist FEW004 22 21     96%   22 1018.3        
Jul 07 05:53 Calm 9.66 Fog/Mist CLR 22 22     100%   23 1017.6 1016.3      
Jul 07 04:53 ESE 5 16.09 Clear CLR 22 21     93%   22 1017.3 1015.9      
Jul 07 03:53 SE 5 16.09 Clear CLR 22 21     96%   22 1016.6 1015.5   0  
Jul 07 02:53 E 9 16.09 Mostly Clear FEW110 22 21     96%   22 1016.9 1015.5 0    
Jul 07 01:53 SSW 8 16.09 Light Rain FEW120 22 21     96%   22 1017.3 1016.1 0    
Jul 07 00:53 NNE 8 16.09 Light Rain FEW110 22 21     96%   22 1017.6 1016.5 0   5
Jul 06 23:53 NW 5 16.09 Light Rain SCT110 22 22     97%   23 1018 1016.9 0    
Jul 06 22:53 NW 11 16.09 Light Rain FEW046 FEW100 23 22     96%   24 1018.6 1017.7 0    
Jul 06 21:53 NNE 8 9.66 Fog/Mist BKN039 BKN060 BKN100 22 21     93%   23 1019 1018 0 5  
Jul 06 21:03 WSW 8 16.09 Mostly Clear FEW037 FEW070 FEW120 23 22     94%   24 1017.6   0    
Jul 06 20:53 S 11 16.09 Thunderstorms and Rain and Fog/Mist SCT047 SCT070 BKN110 22 21     93%   23 1017.6 1016.7 0    
Jul 06 19:53   6.44 Thunderstorms and Rain and Fog/Mist BKN030 25 19     69%   25 1017.6 1016.4 4    
Jul 06 19:10 S 11 11.27 Thunderstorms and Rain SCT029 BKN039 BKN046 27 23     77%   30 1016.9   0    
Jul 06 18:53 Calm 16.09 Mostly Cloudy FEW029 SCT036 BKN043 30 25     75%   36 1016.9 1015.7      
Jul 06 17:53 5 16.09 Partly Cloudy SCT033 31 24     68%   37 1016.6 1015.5      
Jul 06 16:53 N 9 16.09 Mostly Clear FEW032 31 24     68%   37 1016.9 1015.7      
Jul 06 15:53 NNE 9 16.09 Partly Cloudy SCT025 SCT031 31 24     70%   36 1016.9 1015.9      
Jul 06 14:53 NNE 11 16.09 Mostly Cloudy SCT024 BKN033 31 25     70%   38 1018.3 1017.1      
Jul 06 13:53 NNE 13 16.09 Mostly Cloudy SCT023 BKN032 29 24     75%   35 1019 1018      
Jul 06 13:47 NNE 13 16.09 Partly Cloudy SCT023 SCT032 30 25     75%   36 1019        
Jul 06 13:28 N 11 16.09 Mostly Cloudy BKN018 31 24     70%   36 1019.3        
Jul 06 13:19 Calm 16.09 Mostly Cloudy SCT023 BKN031 30 24     70%   35 1019.7        
Jul 06 12:53 NNE 5 16.09 Mostly Cloudy BKN022 29 24     72%   34 1019.7 1018.7      
Jul 06 10:53 Calm 16.09 Clear   26 22     79%   28 1020 1019      
Jul 06 09:53 Calm 16.09 Clear CLR 24 21     84%   25 1020 1019.2      
Jul 06 08:53 S 5 16.09 Clear CLR 22 21     91%   23 1019.7 1018.9      
Jul 06 07:53 S 9 16.09 Clear CLR 22 20     90%   22 1019.7 1018.9      
Jul 06 06:53 SSE 8 16.09 Clear CLR 19 19     97%     1019.7 1018.8      
Jul 06 05:53 Calm 12.87 Clear CLR 19 19     100%     1019.3 1018.7      
Jul 06 04:53 SE 5 16.09 Clear CLR 19 19     100%     1019.3 1018.5      
Jul 06 03:53 SSE 8 8.05 Fog/Mist CLR 19 19     100%     1019 1018.1      
Jul 06 02:53 E 5 8.05 Fog/Mist CLR 19 18     96%     1019.3 1018.4      
Jul 06 02:06 Calm 4.83 Fog/Mist CLR 19 18     96%     1019.3        
Jul 06 01:55 Calm 2.82 Fog/Mist CLR 18 18     100%     1019.3        
Jul 06 01:53 Calm 4.83 Fog/Mist CLR 18 18     100%     1019.7 1018.4      
Jul 06 01:38 Calm 4.83 Fog/Mist CLR 18 18     100%     1019.7        
Jul 06 01:33 S 5 1.61 Fog/Mist CLR 19 18     96%     1019.7        
Jul 06 01:30 SSE 5 0.8 Fog CLR 18 18     100%     1019.7        
Jul 06 01:20 Calm 0.8 Fog VV003 19 19     100%     1019.7        
Jul 06 01:14 Calm 1.21 Fog/Mist VV002 19 19     100%     1019.7        
Jul 06 00:52 Calm 0.8 Fog VV003 19 18     96%     1020 1018.8     0
Jul 06 00:51 Calm 0.8 Fog VV002 19 18     94%     1020        
Jul 06 00:45 Calm 1.21 Fog/Mist VV003 19 19     100%     1020        
Jul 06 00:35 Calm 2.01 Fog/Mist CLR 19 19     97%     1020        
Jul 06 00:23 Calm 4.02 Fog/Mist CLR 19 19     100%     1019.7        
Jul 06 00:04 Calm 4.83 Fog/Mist FEW002 19 19     100%     1019.7        
Jul 05 23:53 Calm 2.41 Fog/Mist FEW002 19 19     100%     1019.7 1018.5      
Jul 05 23:32 Calm 2.82 Fog/Mist CLR 19 19     97%     1019        
Jul 05 22:53 NNW 8 8.05 Fog/Mist CLR 19 19     100%     1018.6 1017.6      
Jul 05 22:38 NNE 5 6.44 Fog/Mist FEW002 20 19     96%     1018.6        
Jul 05 21:53 WNW 5 14.48 Clear CLR 20 20     100%     1018 1017   0  
Jul 05 20:53 W 9 16.09 Clear CLR 21 20     96%     1016.9 1015.9      
Jul 05 19:53 NNE 13 16.09 Clear CLR 21 20     93%     1016.9 1016 0    
Jul 05 18:53 11 16.09 Light Rain SCT110 21 19     90%     1016.6 1015.9 0   2
Jul 05 17:53 SE 18 14.48 Light Rain SCT110 21 19     90%     1017.6   0    
Jul 05 16:53 S 9 16.09 Thunderstorms SCT055 BKN120 21 21     97%     1020.7 1019.8 0    
Jul 05 16:25 WSW 13 16.09 Light Rain BKN110 21 20     93%     1021.3   0    
Jul 05 15:53 E 15 11.27 Thunderstorms and Rain FEW008 BKN036 OVC095 21 20     96%     1020.7   1 2  
Jul 05 15:30 NE 18 3.22 Thunderstorms and Heavy Rain and Fog/Mist SCT008 OVC015 21 21     100%     1021.3   1    
Jul 05 15:12   3.22 Thunderstorms and Heavy Rain and Fog/Mist SCT013 BKN022 OVC075 22 21     93%   22 1020   0    
Notice The following observation data may not be complete
Jul 05 14:53 SW 22 4.83 Thunderstorms and Heavy Rain SCT022 SCT090 SCT120   22      %     1018.6 1017.5 0    
Jul 05 14:49   2.41 Thunderstorms and Heavy Rain SCT035 SCT080 BKN095 29 24     74%   34 1018.6   0    
Jul 05 14:40 W 15 16.09 Thunderstorms SCT035 SCT080 BKN095 31 24     66%   37 1018.3        
Jul 05 13:53 WSW 11 16.09 Mostly Cloudy SCT032 BKN065 31 24     68%   37 1018 1016.8      
Jul 05 12:53 SSW 21 16.09 Mostly Cloudy SCT027 BKN035 31 24     70%   36 1018.3 1017      
Jul 05 11:53 SSW 24 16.09 Partly Cloudy SCT024 30 24     70%   35 1018.6 1017.2      
Jul 05 10:53 SSW 24 16.09 Clear CLR 29 23     72%   33 1018.3 1016.8      
Jul 05 09:53 S 17 16.09 Clear CLR 26 21     74%   26 1018.3 1017.1      
Jul 05 08:53 SE 8 16.09 Mostly Cloudy SCT047 BKN055 23 21     87%   23 1018.3 1017.3      
Jul 05 07:53 S 17 16.09 Partly Cloudy FEW039 SCT047 21 19     90%     1017.3 1016.1      
Jul 05 06:53 SE 11 16.09 Partly Cloudy SCT039 20 18     90%     1018 1016.8 0   1
May 15 06:53 NNW 9 16.09 Clear CLR 16 16     97%     1013.2 1012.2     2
May 14 05:53 S 17 16.09 Clear CLR 21 17     81%     1014.2 1013.1      
May 13 10:53   16.09 Clear CLR 27 20     67%   28 1016.9 1015.8      
May 12 18:53 S 28 16.09 Clear CLR 27 18     58%   28 1012.9 1011.8      
May 12 08:53 S 18 16.09 Clear CLR 23 18     71%   24 1014.6 1013.5      
May 12 00:53 SSE 13 16.09 Clear CLR 21 16     73%     1012.2 1011.3      
Jun 12 01:53 S 15 16.09 Clear CLR 23 18     76%   23 1013.2 1011.9      
Jun 11 21:53 S 17 16.09 Clear CLR 26 18     62%   26 1012.5 1011.3      
Jun 11 11:53   16.09 Partly Cloudy SCT032 29 22     65%   32 1013.9 1012.6      
Jun 11 10:53   16.09 Clear CLR 28 21     65%   31 1013.6 1012.1      
Jun 10 19:53 S 24 16.09 Clear CLR 27 19     62%   29 1010.2 1008.9      
Jun 10 17:53   16.09 Clear CLR 29 20     57%   31 1009.8 1008.8      
Jun 10 11:53   16.09 Clear CLR 28 19     60%   29 1012.5 1011.3      
Jun 09 14:53 S 21 16.09 Partly Cloudy SCT055 27 16     52%   27 1012.9 1012.1      
Jun 09 00:53 SE 5 16.09 Clear CLR 16 13     83%     1013.9 1013      
Jun 08 23:53 S 5 16.09 Clear   17 13     80%     1013.9 1013.1      
Jun 08 12:53 WNW 8 16.09 Clear CLR 26 12     41%   26 1017.6 1016.8      
Jun 08 06:53 Calm 16.09 Clear CLR 13 12     90%     1018 1017.4      
Jun 07 21:53 Calm 16.09 Clear CLR 18 13     75%     1017.6 1016.7      
Jun 07 14:53 NNE 15 16.09 Clear CLR 27 11     37%   27 1018 1017      
Jun 07 11:53 E 15 16.09 Mostly Clear FEW060 26 9     35%   26 1019 1018.2      
Jun 06 11:53 N 8 16.09 Clear CLR 28 18     55%   29 1014.6 1013.4      
Jun 06 10:53 N 8 16.09 Clear CLR 26 19     65%   26 1014.6 1013.3      
Notice The following observation data may not be complete
Jun 06 04:02   3.22 Fog/Mist CLR          %              
Jun 05 19:53 Calm 16.09 Mostly Cloudy BKN075 29 21     63%   31 1010.2 1008.9